[[{"header":{"parameterUnit":"m.s-1","parameterCategory":2,"la1":30.2991,"la2":30.254,"lo1":-89.0895,"lo2":-89.0444,"dy":0.0017,"dx":0.0017,"nx":28,"ny":28,"refTime":"2025-07-23T09:00:00:Z","depth":"0","parameterNumber":2,"parameterNumberName":"U-component_of_CURRENTS"},"data":[0,0,0,0,0,0,0,0,0,0,0,0,0,0,0,0,0,0,0,0,0,0,0,0,0,0,0,0,0,0,0,0,0,0,0,0,0,0,0,0,0,0,0,0,0,0,0,0,0,0,0,0,0,0,0,0,0,0,0.2023,0.2023,0,0.2042,0.2042,0.2043,0.2033,0.2032,0.2031,0.2031,0.2068,0.207,0.2071,0,0,0,0,0,0,0,0,0,0,0,0,0,0.2013,0.2013,0.2023,0.2023,0.2023,0.2042,0.2042,0.2043,0.2033,0.2032,0.2031,0.203,0.2067,0.2069,0.2071,0,0,0,0,0,0,0,0,0,0,0,0,0,0.2025,0.2013,0.2023,0.2018,0.2018,0.2042,0.2042,0.2043,0.2033,0.2032,0.2031,0.203,0.2067,0.2069,0.2072,0.2109,0,0,0.2079,0.208,0,0,0,0,0,0,0,0,0.2025,0.2026,0.2019,0.2019,0.2018,0.2032,0.2052,0.2065,0.2033,0.203,0.203,0.2029,0.2057,0.206,0.2069,0.2111,0.2112,0.208,0.2081,0.2082,0.2083,0,0,0,0,0,0,0,0.2024,0.2025,0.2033,0.2019,0.2019,0.2027,0.2028,0.2055,0.2051,0.203,0.2029,0.2027,0.2057,0.2067,0.207,0.2113,0.2079,0.2082,0.2083,0.2084,0.226,0.2263,0,0,0,0,0,0,0.2016,0.2025,0.2032,0.2033,0.2016,0.2028,0.2029,0.203,0.2051,0.2052,0.2028,0.2027,0.2063,0.2067,0.2071,0.2166,0.2082,0.2084,0.2086,0.2257,0.2261,0.2264,0,0,0,0,0,0,0.2016,0.2017,0.2031,0.2027,0.2029,0.2029,0.2031,0.2031,0.2037,0.2049,0.205,0.2033,0.2062,0.2068,0.211,0.2165,0.2086,0.2088,0.2253,0.2258,0.2263,0.2324,0,0,0,0,0,0,0.2016,0.2017,0.202,0.2027,0.2029,0.2047,0.2032,0.2032,0.2037,0.2036,0.2054,0.2056,0.2062,0.2106,0.2112,0.2167,0.209,0.2249,0.2256,0.2261,0.2318,0.233,0.2341,0,0,0,0,0,0.2015,0.2026,0.202,0.2021,0.2031,0.2048,0.2051,0.2048,0.2039,0.2049,0.2069,0.2056,0.2149,0.211,0.2117,0.2174,0.2246,0.2254,0.2261,0.2313,0.2328,0.2341,0,0,0,0,0,0,0.203,0.2026,0.2019,0.203,0.2037,0.2045,0.2054,0.2052,0.2075,0.2076,0.2083,0.2088,0.2155,0.2157,0.2114,0.2247,0.2202,0.2211,0.224,0.2254,0.2265,0.2241,0.2092,0,0,0,0,0,0.2032,0.2036,0.2037,0.2047,0.2048,0.2052,0.2058,0.2058,0.2076,0.2084,0.2098,0.2134,0.2194,0.2212,0.2254,0.2311,0.2278,0.236,0.2371,0.238,0.237,0.2412,0.2425,0.2288,0.2288,0.2288,0,0,0.2038,0.2039,0.204,0.2049,0.2054,0.2072,0.2054,0.2068,0.2096,0.2087,0.2132,0.2171,0.222,0.2296,0.2326,0.2298,0.2392,0.239,0.2397,0.2381,0.242,0.2433,0.2444,0.2293,0.2292,0.2291,0,0,0.2052,0.2055,0.2058,0.2069,0.2077,0.209,0.2093,0.2105,0.2122,0.2169,0.2193,0.2255,0.2315,0.2372,0.2409,0.2508,0.2456,0.2533,0.2564,0.2606,0.2616,0.2625,0.2541,0.2543,0.2533,0.2533,0.2534,0,0.2056,0.2062,0.2065,0.2078,0.209,0.2099,0.2115,0.2147,0.2175,0.2201,0.219,0.2326,0.2359,0.2477,0.2514,0.2533,0.25,0.2503,0.2617,0.2625,0.2633,0.2546,0.2546,0.2537,0.2537,0.2536,0.2536,0,0.2071,0.2078,0.2087,0.2106,0.2129,0.2145,0.2182,0.2214,0.2236,0.2266,0.2367,0.2426,0.2499,0.2544,0.2555,0.2657,0.2591,0.2627,0.2569,0.265,0.2553,0.2552,0.2543,0.2541,0.254,0.2539,0,0,0.2062,0.2086,0.2088,0.2099,0.2141,0.2162,0.2226,0.2281,0.2333,0.2382,0.2455,0.257,0.2589,0.2633,0.2677,0.2715,0.2729,0.2688,0.2689,0.2579,0.2724,0.2515,0.2493,0.2787,0.2789,0.279,0.2609,0,0.2064,0.2083,0.2105,0.2144,0.2156,0.2201,0.2268,0.233,0.2388,0.2466,0.2545,0.2627,0.2632,0.2675,0.2724,0.2753,0.274,0.2768,0.2683,0.2678,0.2466,0.2492,0.2379,0.2197,0.2608,0.2607,0.2607,0,0.2063,0.2077,0.21,0.2159,0.2172,0.2209,0.2309,0.2369,0.2487,0.253,0.2619,0.2673,0.2754,0.275,0.2783,0.2797,0.2748,0.2743,0.2737,0.252,0.2471,0.22,0.2179,0.2129,0.2605,0.2605,0.2606,0,0.2041,0.2077,0.2094,0.211,0.2184,0.2216,0.2266,0.238,0.2442,0.256,0.2601,0.2714,0.2738,0.2769,0.272,0.2764,0.2704,0.2769,0.2512,0.2491,0.2364,0.233,0.2267,0.2756,0.2757,0.2757,0.2758,0,0.2031,0.2046,0.208,0.2089,0.2141,0.2199,0.2282,0.2348,0.2462,0.2527,0.262,0.2662,0.2746,0.2724,0.2712,0.2559,0.268,0.2486,0.2448,0.2373,0.2344,0.2268,0.2272,0.275,0.2752,0.2753,0.2754,0,0.2007,0.2023,0.2047,0.2105,0.2125,0.2163,0.226,0.2332,0.2414,0.25,0.2524,0.2599,0.2543,0.2548,0.2538,0.2476,0.2312,0.2308,0.2134,0.2079,0.1812,0.1823,0.1625,0.1594,0.2022,0.2016,0.2011,0,0.1998,0.2004,0.2043,0.2065,0.2085,0.2146,0.2203,0.2298,0.2363,0.2441,0.2471,0.2428,0.2386,0.2235,0.2133,0.1997,0.2027,0.1778,0.1866,0.1741,0.1731,0.1733,0.1728,0.1699,0.1691,0.1686,0.1681,0,0.1995,0.2002,0.2022,0.2048,0.2087,0.2136,0.2203,0.2237,0.2337,0.2356,0.2327,0.2283,0.2105,0.1907,0.1693,0.1626,0.1689,0.1645,0.1629,0.1535,0.1429,0.1399,0.1794,0.1628,0.1634,0.1638,0.164,0.1642,0.1996,0.2,0.2016,0.2037,0.2074,0.2096,0.2096,0.2143,0.216,0.2124,0.2158,0.1985,0.1775,0.1468,0.1371,0.1114,0.1246,0.1089,0.1119,0.1137,0.1094,0.1279,0.1016,0.1017,0.1019,0.102,0.1021,0,0.1988,0.1988,0.2012,0.2006,0.2,0.2039,0.2075,0.2035,0.1964,0.1903,0.1818,0.1514,0.1263,0.1074,0.0776,0.0652,0.0703,0.0619,0.0687,0.0722,0.0974,0.0951,0.0527,0.0527,0.0527,0.0527,0.0527,0.0527,0.1984,0.1977,0.1969,0.1924,0.1913,0.1859,0.1844,0.1767,0.1698,0.1441,0.1218,0.1121,0.092,0.0631,0.0395,0.0363,0.0397,0.0284,0.0371,0.0634,0.0686,0.0735,0.0717,0.025,0.025,0.0117,0.0116,0.0115]},{"header":{"parameterUnit":"m.s-1","parameterCategory":2,"la1":30.2991,"la2":30.254,"lo1":-89.0895,"lo2":-89.0444,"dy":0.0017,"dx":0.0017,"nx":28,"ny":28,"refTime":"2025-07-23T09:00:00:Z","depth":"0","parameterNumber":3,"parameterNumberName":"V-component_of_CURRENTS"},"data":[0,0,0,0,0,0,0,0,0,0,0,0,0,0,0,0,0,0,0,0,0,0,0,0,0,0,0,0,0,0,0,0,0,0,0,0,0,0,0,0,0,0,0,0,0,0,0,0,0,0,0,0,0,0,0,0,0,0,0.021,0.021,0,0.0236,0.0237,0.0237,0.0237,0.0237,0.0236,0.0236,0.025,0.0251,0.0251,0,0,0,0,0,0,0,0,0,0,0,0,0,0.0173,0.0174,0.021,0.021,0.0211,0.0236,0.0237,0.0237,0.0237,0.0237,0.0236,0.0236,0.025,0.025,0.0251,0,0,0,0,0,0,0,0,0,0,0,0,0,0.0193,0.0174,0.021,0.0214,0.0215,0.0236,0.0237,0.0237,0.0237,0.0237,0.0236,0.0236,0.0249,0.025,0.0251,0.0267,0,0,0.0254,0.0255,0,0,0,0,0,0,0,0,0.0192,0.0194,0.0213,0.0214,0.0215,0.0233,0.0229,0.0247,0.0237,0.0228,0.0236,0.0236,0.0244,0.0245,0.0251,0.0268,0.0268,0.0254,0.0255,0.0255,0.0256,0,0,0,0,0,0,0,0.019,0.0193,0.022,0.0214,0.0214,0.0219,0.0221,0.0232,0.0238,0.0229,0.0229,0.0233,0.0244,0.025,0.0251,0.0268,0.0254,0.0255,0.0256,0.0256,0.0314,0.0315,0,0,0,0,0,0,0.0188,0.0192,0.0219,0.0221,0.0202,0.022,0.0222,0.0227,0.0238,0.0239,0.0233,0.0233,0.0249,0.025,0.0252,0.0281,0.0255,0.0256,0.0257,0.0313,0.0314,0.0315,0,0,0,0,0,0,0.0187,0.019,0.0218,0.0207,0.0211,0.0221,0.0227,0.0228,0.0235,0.0241,0.0242,0.0238,0.0248,0.025,0.0263,0.0281,0.0257,0.0258,0.0312,0.0313,0.0315,0.0333,0,0,0,0,0,0,0.0186,0.0189,0.0194,0.0207,0.0212,0.0234,0.0227,0.0229,0.0238,0.0237,0.0246,0.0247,0.0248,0.0261,0.0264,0.0282,0.0259,0.0311,0.0313,0.0314,0.0331,0.0335,0.0338,0,0,0,0,0,0.0184,0.0195,0.0194,0.0197,0.0217,0.0235,0.0238,0.0243,0.0238,0.0246,0.0249,0.0247,0.0274,0.0262,0.0265,0.0284,0.031,0.0312,0.0314,0.033,0.0334,0.0338,0,0,0,0,0,0,0.0182,0.0196,0.0195,0.0209,0.0221,0.0235,0.0244,0.0246,0.0255,0.0253,0.0254,0.0256,0.0274,0.0278,0.0265,0.0307,0.0294,0.0297,0.0305,0.0309,0.0312,0.0339,0.0259,0,0,0,0,0,0.0183,0.0194,0.0206,0.0218,0.0224,0.0233,0.0241,0.0245,0.0254,0.0257,0.0262,0.0272,0.0287,0.0295,0.0305,0.0327,0.0346,0.0343,0.0347,0.035,0.0374,0.0449,0.0462,0.0322,0.0322,0.0322,0,0,0.0185,0.0194,0.02,0.0218,0.0227,0.0242,0.0237,0.0252,0.0263,0.0258,0.0274,0.0281,0.0294,0.0317,0.0327,0.0322,0.0386,0.0352,0.0354,0.0378,0.0453,0.0467,0.0479,0.0324,0.0323,0.0323,0,0,0.0197,0.0203,0.0216,0.0228,0.0243,0.025,0.0254,0.0268,0.0274,0.0289,0.0291,0.0317,0.0326,0.0353,0.0364,0.0397,0.0399,0.0389,0.0433,0.0504,0.0517,0.0528,0.0511,0.0521,0.0395,0.0395,0.0395,0,0.0196,0.0216,0.0223,0.0239,0.0251,0.0254,0.0271,0.028,0.0295,0.0314,0.0295,0.0354,0.0352,0.0413,0.0415,0.0407,0.0419,0.0412,0.051,0.0522,0.0534,0.0515,0.0526,0.0396,0.0396,0.0396,0.0396,0,0.0218,0.0234,0.0244,0.0264,0.0277,0.0294,0.0306,0.0319,0.0322,0.0341,0.0392,0.0406,0.0451,0.0447,0.0435,0.0518,0.0484,0.0502,0.0501,0.055,0.0524,0.0536,0.0398,0.0397,0.0397,0.0397,0,0,0.0216,0.0252,0.0255,0.0273,0.0292,0.0309,0.0329,0.0363,0.04,0.0416,0.0485,0.0501,0.0526,0.0543,0.0547,0.0601,0.0653,0.0582,0.0586,0.0566,0.0753,0.0696,0.0701,0.0694,0.0698,0.07,0.068,0,0.023,0.0267,0.0279,0.0314,0.0335,0.0347,0.0373,0.0404,0.0433,0.0499,0.0541,0.0599,0.0558,0.0591,0.064,0.067,0.0694,0.0654,0.071,0.071,0.0657,0.0719,0.071,0.0691,0.0691,0.0693,0.0694,0,0.0245,0.0271,0.0308,0.0352,0.0363,0.0383,0.044,0.0465,0.0547,0.0576,0.0651,0.0689,0.0766,0.0735,0.0808,0.0784,0.0767,0.0775,0.0775,0.0737,0.0678,0.0656,0.0712,0.0725,0.0711,0.071,0.0709,0,0.0247,0.029,0.0323,0.0336,0.0385,0.0406,0.0431,0.0494,0.0543,0.0645,0.071,0.0794,0.0858,0.0888,0.0872,0.0856,0.0945,0.0927,0.0847,0.0838,0.0853,0.0841,0.0941,0.0984,0.0984,0.0984,0.0984,0,0.026,0.0287,0.0328,0.0349,0.0401,0.0421,0.0491,0.0527,0.0621,0.0714,0.0761,0.0856,0.091,0.0957,0.0924,0.0914,0.098,0.0872,0.086,0.0848,0.0837,0.0866,0.0866,0.0983,0.0983,0.0984,0.0984,0,0.0263,0.0287,0.0332,0.0384,0.0405,0.0443,0.0524,0.0586,0.0652,0.0785,0.0828,0.0929,0.0977,0.0981,0.1026,0.0976,0.0973,0.0938,0.087,0.0851,0.0787,0.0787,0.0856,0.0887,0.0864,0.0863,0.0862,0,0.0273,0.0296,0.0359,0.0396,0.0423,0.0482,0.0535,0.06,0.0676,0.0827,0.0905,0.0987,0.105,0.1055,0.0997,0.0931,0.0938,0.0864,0.0849,0.0805,0.0798,0.079,0.0812,0.0839,0.0838,0.0837,0.0836,0,0.0298,0.0316,0.0358,0.0428,0.0485,0.0557,0.0635,0.0701,0.0801,0.0897,0.1023,0.1082,0.108,0.1042,0.0942,0.0891,0.0886,0.0842,0.0867,0.0854,0.0791,0.0806,0.076,0.0829,0.083,0.083,0.083,0.0831,0.0322,0.0352,0.0404,0.0472,0.054,0.063,0.069,0.0784,0.0896,0.1045,0.1085,0.115,0.1089,0.096,0.0908,0.0802,0.0817,0.0773,0.0786,0.0788,0.0816,0.0703,0.0723,0.0723,0.0723,0.0723,0.0723,0,0.0351,0.0387,0.0449,0.0529,0.0599,0.0632,0.0759,0.0827,0.095,0.1062,0.1144,0.1113,0.1039,0.0949,0.0807,0.0768,0.0777,0.0756,0.0783,0.0819,0.0785,0.0784,0.0736,0.0736,0.0736,0.0736,0.0736,0.0736,0.0371,0.0423,0.045,0.0561,0.0618,0.0711,0.078,0.0895,0.0983,0.1083,0.1091,0.1104,0.1028,0.0859,0.0787,0.0777,0.0827,0.0775,0.0824,0.082,0.0824,0.0828,0.083,0.0793,0.0793,0.0869,0.0869,0.087]}],[{"header":{"parameterUnit":"m.s-1","parameterCategory":2,"la1":30.2991,"la2":30.254,"lo1":-89.0895,"lo2":-89.0444,"dy":0.0017,"dx":0.0017,"nx":28,"ny":28,"refTime":"2025-07-23T09:00:00:Z","depth":"2","parameterNumber":2,"parameterNumberName":"U-component_of_CURRENTS"},"data":[0,0,0,0,0,0,0,0,0,0,0,0,0,0,0,0,0,0,0,0,0,0,0,0,0,0,0,0,0,0,0,0,0,0,0,0,0,0,0,0,0,0,0,0,0,0,0,0,0,0,0,0,0,0,0,0,0,0,0.132,0.1321,0,0.1362,0.1362,0.1363,0.1377,0.1377,0.1377,0.1377,0.1392,0.1393,0.1393,0,0,0,0,0,0,0,0,0,0,0,0,0,0.1321,0.132,0.132,0.1321,0.1321,0.1362,0.1362,0.1363,0.1377,0.1377,0.1377,0.1378,0.1392,0.1393,0.1393,0,0,0,0,0,0,0,0,0,0,0,0,0,0.1335,0.132,0.132,0.1335,0.1337,0.1362,0.1362,0.1363,0.1377,0.1377,0.1377,0.1378,0.1392,0.1392,0.1393,0.1395,0,0,0.1395,0.1395,0,0,0,0,0,0,0,0,0.1334,0.1335,0.1332,0.1334,0.1337,0.1367,0.1368,0.1373,0.1377,0.136,0.1377,0.1378,0.1383,0.1384,0.1389,0.1395,0.1396,0.1395,0.1395,0.1395,0.1395,0,0,0,0,0,0,0,0.1333,0.1333,0.1334,0.1333,0.1336,0.1364,0.1365,0.137,0.1368,0.1361,0.1363,0.1371,0.1383,0.1388,0.1389,0.1396,0.1395,0.1395,0.1395,0.1396,0.145,0.1451,0,0,0,0,0,0,0.1328,0.1332,0.1333,0.1336,0.1338,0.1364,0.1365,0.1355,0.1368,0.1372,0.1371,0.1372,0.1387,0.1389,0.139,0.1427,0.1395,0.1396,0.1396,0.1449,0.145,0.1451,0,0,0,0,0,0,0.1328,0.1327,0.1331,0.1338,0.1341,0.1363,0.1352,0.1356,0.1374,0.1377,0.1379,0.1388,0.1387,0.1389,0.1399,0.1426,0.1396,0.1396,0.1447,0.1449,0.1451,0.1478,0,0,0,0,0,0,0.1327,0.1326,0.1328,0.1337,0.134,0.1351,0.1353,0.1357,0.1379,0.1381,0.1391,0.1392,0.1388,0.1398,0.14,0.1426,0.1397,0.1446,0.1448,0.145,0.1476,0.1481,0.1485,0,0,0,0,0,0.1327,0.1334,0.1327,0.1328,0.1337,0.1352,0.1356,0.1372,0.138,0.1388,0.1394,0.1392,0.1414,0.1399,0.1401,0.1428,0.1445,0.1448,0.145,0.1474,0.148,0.1485,0,0,0,0,0,0,0.1344,0.1337,0.1329,0.1334,0.1342,0.1355,0.1375,0.1381,0.1393,0.1396,0.1397,0.1398,0.1423,0.142,0.1404,0.1451,0.1433,0.1436,0.1451,0.1457,0.1461,0.1531,0.1397,0,0,0,0,0,0.1344,0.1339,0.134,0.1345,0.1352,0.1364,0.1377,0.138,0.139,0.1397,0.1408,0.142,0.1433,0.1439,0.1449,0.1466,0.1471,0.1489,0.1493,0.1497,0.1556,0.1589,0.1602,0.146,0.146,0.146,0,0,0.135,0.1348,0.1345,0.1347,0.1358,0.1371,0.1372,0.1391,0.1402,0.1396,0.1425,0.1436,0.1442,0.1465,0.1477,0.1465,0.1522,0.15,0.1503,0.1562,0.1593,0.1607,0.1619,0.1461,0.1461,0.1461,0,0,0.1363,0.1361,0.136,0.1371,0.1384,0.1389,0.1397,0.1414,0.1424,0.1444,0.1449,0.1494,0.1493,0.1526,0.1534,0.1576,0.1547,0.1556,0.1633,0.1662,0.1674,0.1686,0.1632,0.1639,0.1555,0.1555,0.1555,0,0.1369,0.1365,0.1367,0.1379,0.1387,0.1399,0.1405,0.1423,0.1442,0.1466,0.1458,0.1531,0.1541,0.1595,0.162,0.1593,0.1567,0.1604,0.1669,0.1681,0.1692,0.1635,0.1642,0.1557,0.1557,0.1556,0.1556,0,0.1379,0.1384,0.1395,0.1399,0.141,0.1423,0.1437,0.1465,0.1483,0.151,0.1574,0.1601,0.1656,0.1657,0.1658,0.1742,0.1676,0.1668,0.1656,0.1709,0.1643,0.165,0.1559,0.1559,0.1558,0.1558,0,0,0.1368,0.139,0.1396,0.1402,0.1418,0.143,0.1461,0.1498,0.154,0.1586,0.1656,0.1719,0.1762,0.1782,0.1785,0.1834,0.1871,0.1795,0.1795,0.1742,0.1864,0.1666,0.1653,0.1857,0.186,0.1863,0.1756,0,0.137,0.1385,0.1395,0.1419,0.1426,0.1452,0.1489,0.1532,0.1563,0.1641,0.1716,0.1782,0.179,0.1824,0.1881,0.1894,0.1904,0.1897,0.1825,0.1822,0.1643,0.1663,0.1566,0.1453,0.1763,0.1764,0.1765,0,0.1374,0.138,0.1391,0.1428,0.1438,0.1465,0.1523,0.155,0.1656,0.1694,0.1788,0.1838,0.1953,0.1942,0.2,0.1983,0.1947,0.194,0.1934,0.177,0.1642,0.1468,0.1454,0.1777,0.1776,0.1775,0.1774,0,0.1355,0.1384,0.1388,0.1399,0.1444,0.1475,0.1507,0.1582,0.1607,0.1738,0.1776,0.1907,0.1951,0.1998,0.198,0.1999,0.1995,0.2001,0.1773,0.1754,0.1677,0.1645,0.2037,0.2037,0.2037,0.2037,0.2038,0,0.1347,0.1359,0.1392,0.14,0.1439,0.1472,0.1519,0.1581,0.1658,0.1716,0.1806,0.1847,0.1973,0.1973,0.1984,0.1869,0.1977,0.1807,0.1739,0.1668,0.1639,0.195,0.1942,0.2033,0.2034,0.2035,0.2036,0,0.1332,0.1344,0.1364,0.1412,0.1429,0.1463,0.1508,0.1546,0.1609,0.1682,0.1731,0.1805,0.18,0.1824,0.186,0.1805,0.1767,0.1678,0.1539,0.1458,0.1505,0.15,0.1466,0.1459,0.1453,0.1448,0.1443,0,0.1317,0.1324,0.1371,0.138,0.1405,0.1442,0.1472,0.1534,0.1582,0.1639,0.1695,0.168,0.1662,0.1561,0.1514,0.143,0.1535,0.1246,0.1302,0.1523,0.146,0.1464,0.1466,0.118,0.1174,0.1169,0.1164,0,0.13,0.1329,0.1351,0.1364,0.139,0.1408,0.147,0.1473,0.1558,0.1574,0.1568,0.1531,0.1429,0.1294,0.1142,0.1099,0.1275,0.1133,0.1437,0.1318,0.1239,0.1181,0.1196,0.112,0.1124,0.1127,0.113,0.1132,0.1295,0.1311,0.1339,0.1348,0.1364,0.1361,0.1342,0.1389,0.1382,0.1377,0.1412,0.1286,0.125,0.0955,0.0861,0.0777,0.0892,0.0876,0.0899,0.0926,0.0892,0.0804,0.0592,0.0594,0.0595,0.0596,0.0597,0,0.1279,0.1298,0.131,0.1305,0.1284,0.1327,0.1334,0.1278,0.1217,0.1216,0.116,0.0948,0.0782,0.0733,0.0542,0.0468,0.0548,0.0432,0.0584,0.0626,0.0664,0.0626,0.0251,0.025,0.0249,0.0248,0,0,0.127,0.126,0.1261,0.1216,0.1218,0.1167,0.114,0.1058,0.1023,0.0876,0.0798,0.0785,0.0743,0.0532,0.0454,0.0338,0.0497,0.0299,0.0578,0.0805,0.0843,0.0909,0.0892,0,0,0,0,0]},{"header":{"parameterUnit":"m.s-1","parameterCategory":2,"la1":30.2991,"la2":30.254,"lo1":-89.0895,"lo2":-89.0444,"dy":0.0017,"dx":0.0017,"nx":28,"ny":28,"refTime":"2025-07-23T09:00:00:Z","depth":"2","parameterNumber":3,"parameterNumberName":"V-component_of_CURRENTS"},"data":[0,0,0,0,0,0,0,0,0,0,0,0,0,0,0,0,0,0,0,0,0,0,0,0,0,0,0,0,0,0,0,0,0,0,0,0,0,0,0,0,0,0,0,0,0,0,0,0,0,0,0,0,0,0,0,0,0,0,0.0104,0.0105,0,0.013,0.013,0.0131,0.0139,0.0139,0.0139,0.0139,0.0161,0.0162,0.0163,0,0,0,0,0,0,0,0,0,0,0,0,0,0.0068,0.0069,0.0104,0.0105,0.0105,0.013,0.013,0.0131,0.0139,0.0139,0.0139,0.0139,0.0161,0.0162,0.0163,0,0,0,0,0,0,0,0,0,0,0,0,0,0.0088,0.0069,0.0104,0.0113,0.0114,0.013,0.013,0.0131,0.0139,0.0139,0.0139,0.0139,0.0161,0.0162,0.0163,0.0171,0,0,0.0166,0.0166,0,0,0,0,0,0,0,0,0.0087,0.0089,0.0111,0.0112,0.0113,0.0132,0.0126,0.0144,0.0139,0.0129,0.0139,0.0139,0.0152,0.0153,0.0158,0.0172,0.0173,0.0166,0.0167,0.0167,0.0167,0,0,0,0,0,0,0,0.0085,0.0088,0.0114,0.0111,0.0113,0.0117,0.012,0.0129,0.014,0.013,0.0131,0.0134,0.0152,0.0157,0.0158,0.0173,0.0166,0.0167,0.0167,0.0168,0.0207,0.0208,0,0,0,0,0,0,0.0083,0.0087,0.0113,0.0115,0.01,0.0118,0.0121,0.0126,0.014,0.0143,0.0134,0.0135,0.0155,0.0157,0.0159,0.0181,0.0167,0.0168,0.0168,0.0207,0.0207,0.0208,0,0,0,0,0,0,0.0082,0.0085,0.0112,0.0102,0.0105,0.0119,0.0124,0.0126,0.0133,0.0144,0.0146,0.0139,0.0155,0.0158,0.0171,0.0181,0.0168,0.0169,0.0206,0.0207,0.0208,0.0217,0,0,0,0,0,0,0.0081,0.0085,0.0088,0.0101,0.0106,0.0126,0.0124,0.0127,0.0135,0.0136,0.0148,0.015,0.0155,0.0169,0.0172,0.0182,0.017,0.0206,0.0207,0.0207,0.0216,0.0218,0.022,0,0,0,0,0,0.0079,0.0088,0.0088,0.0091,0.011,0.0127,0.013,0.0138,0.0135,0.0143,0.0148,0.015,0.0176,0.017,0.0173,0.0184,0.0205,0.0206,0.0207,0.0215,0.0218,0.022,0,0,0,0,0,0,0.0074,0.009,0.009,0.0103,0.0114,0.0129,0.0137,0.0139,0.0149,0.0149,0.0155,0.0158,0.0174,0.0177,0.017,0.0198,0.0192,0.0193,0.0197,0.0199,0.0201,0.023,0.0171,0,0,0,0,0,0.0074,0.0085,0.0098,0.0108,0.0114,0.0124,0.0131,0.0136,0.0147,0.0151,0.016,0.0169,0.0181,0.0187,0.0198,0.0212,0.0229,0.0222,0.0224,0.0225,0.0251,0.0305,0.0314,0.0211,0.0211,0.0211,0,0,0.0074,0.0085,0.009,0.0107,0.0117,0.0133,0.0128,0.0142,0.0156,0.0152,0.0173,0.0176,0.0186,0.0203,0.021,0.0207,0.0251,0.0226,0.0227,0.0253,0.0307,0.0317,0.0326,0.0212,0.0212,0.0212,0,0,0.0086,0.009,0.0105,0.0117,0.0132,0.0139,0.0143,0.0158,0.0165,0.0182,0.0183,0.0199,0.021,0.0227,0.0234,0.0254,0.0259,0.0247,0.028,0.0331,0.0341,0.035,0.0334,0.0341,0.0247,0.0248,0.0248,0,0.0085,0.0106,0.0111,0.013,0.0143,0.0143,0.0163,0.0172,0.0188,0.0206,0.019,0.0236,0.0229,0.0273,0.0269,0.026,0.027,0.0269,0.0335,0.0345,0.0354,0.0336,0.0344,0.0248,0.0248,0.0248,0.0248,0,0.011,0.0127,0.0137,0.0161,0.0174,0.0191,0.0203,0.0216,0.0219,0.0236,0.0276,0.0279,0.0315,0.0301,0.0286,0.0344,0.0319,0.0331,0.0332,0.0365,0.0343,0.0351,0.0249,0.0249,0.0249,0.0248,0,0,0.0112,0.0148,0.0152,0.0172,0.0193,0.021,0.0231,0.0263,0.0298,0.0307,0.0367,0.0365,0.0381,0.0391,0.0383,0.0412,0.0443,0.0394,0.0396,0.0381,0.0514,0.0465,0.0468,0.0472,0.0475,0.0477,0.0455,0,0.0131,0.0172,0.0184,0.0224,0.0247,0.0257,0.0284,0.0311,0.0337,0.0394,0.041,0.0458,0.0412,0.0435,0.046,0.0466,0.0475,0.0446,0.0484,0.0484,0.0441,0.0481,0.0465,0.0444,0.0463,0.0465,0.0466,0,0.0152,0.018,0.022,0.0268,0.0279,0.0301,0.0357,0.0383,0.0449,0.0474,0.0529,0.0555,0.0598,0.0561,0.0593,0.0578,0.0548,0.0537,0.0537,0.0507,0.0454,0.0425,0.0458,0.048,0.0479,0.0478,0.0477,0,0.0157,0.0206,0.024,0.0255,0.0305,0.0328,0.0353,0.041,0.0457,0.054,0.0594,0.0651,0.0688,0.0696,0.0651,0.0638,0.0679,0.0661,0.0579,0.0572,0.0576,0.0566,0.0691,0.0691,0.0691,0.0691,0.0691,0,0.0175,0.0205,0.0247,0.0269,0.0323,0.0346,0.0416,0.0449,0.0532,0.0613,0.0644,0.0714,0.073,0.0749,0.0701,0.0661,0.0717,0.0601,0.0587,0.057,0.056,0.0619,0.0611,0.069,0.069,0.069,0.0691,0,0.0178,0.0203,0.0251,0.0306,0.0328,0.0365,0.0448,0.0508,0.0567,0.0681,0.0715,0.0779,0.0789,0.0769,0.0769,0.0716,0.0688,0.0648,0.0588,0.0569,0.0524,0.0517,0.0578,0.0577,0.0576,0.0575,0.0574,0,0.0186,0.021,0.0275,0.0311,0.0338,0.04,0.0452,0.052,0.0594,0.0716,0.0779,0.082,0.0843,0.0798,0.0728,0.0646,0.0644,0.0569,0.0553,0.0545,0.0525,0.0519,0.0513,0.0532,0.0531,0.053,0.0529,0,0.0206,0.0225,0.0266,0.0335,0.0392,0.0468,0.0547,0.0613,0.0711,0.0785,0.0874,0.0897,0.0846,0.0769,0.0653,0.0595,0.0589,0.0545,0.0607,0.0559,0.05,0.048,0.0476,0.0521,0.0522,0.0523,0.0523,0.0523,0.0222,0.0251,0.0303,0.0371,0.0438,0.0533,0.0596,0.0686,0.0788,0.0896,0.091,0.0907,0.0838,0.0664,0.0584,0.0496,0.0509,0.0473,0.0477,0.0482,0.0478,0.042,0.0421,0.0421,0.0421,0.0421,0.0421,0,0.0247,0.0282,0.034,0.0423,0.0493,0.0531,0.0661,0.0723,0.0826,0.0885,0.0919,0.0813,0.072,0.0629,0.049,0.0417,0.0423,0.0388,0.0418,0.0426,0.0433,0.0427,0.0356,0.0356,0.0356,0.0355,0,0,0.0261,0.0313,0.0342,0.0454,0.0513,0.0612,0.0684,0.0773,0.083,0.0865,0.0841,0.0819,0.072,0.0605,0.0512,0.0435,0.0446,0.0413,0.0471,0.0525,0.0533,0.0483,0.0483,0,0,0,0,0]}],[{"header":{"parameterUnit":"m.s-1","parameterCategory":2,"la1":30.2991,"la2":30.254,"lo1":-89.0895,"lo2":-89.0444,"dy":0.0017,"dx":0.0017,"nx":28,"ny":28,"refTime":"2025-07-23T09:00:00:Z","depth":"4","parameterNumber":2,"parameterNumberName":"U-component_of_CURRENTS"},"data":[0,0,0,0,0,0,0,0,0,0,0,0,0,0,0,0,0,0,0,0,0,0,0,0,0,0,0,0,0,0,0,0,0,0,0,0,0,0,0,0,0,0,0,0,0,0,0,0,0,0,0,0,0,0,0,0,0,0,0.0493,0.0493,0,0.0486,0.0486,0.0485,0.0493,0.0494,0.0495,0.0495,0.0482,0.0481,0.048,0,0,0,0,0,0,0,0,0,0,0,0,0,0.052,0.0519,0.0493,0.0493,0.0493,0.0486,0.0485,0.0485,0.0493,0.0494,0.0495,0.0496,0.0482,0.0481,0.048,0,0,0,0,0,0,0,0,0,0,0,0,0,0.0506,0.0519,0.0493,0.0499,0.05,0.0486,0.0485,0.0485,0.0493,0.0494,0.0495,0.0496,0.0483,0.0481,0.048,0.045,0,0,0.0475,0.0475,0,0,0,0,0,0,0,0,0.0507,0.0505,0.0498,0.0499,0.05,0.0495,0.0491,0.0474,0.0493,0.0491,0.0495,0.0496,0.0488,0.0486,0.0477,0.045,0.0449,0.0475,0.0474,0.0474,0.0473,0,0,0,0,0,0,0,0.0508,0.0505,0.0486,0.0499,0.05,0.0506,0.0504,0.0487,0.0481,0.0492,0.0493,0.0499,0.0488,0.0478,0.0476,0.0449,0.0475,0.0474,0.0473,0.0472,0.046,0.0461,0,0,0,0,0,0,0.0515,0.0506,0.0486,0.0486,0.0511,0.0505,0.0503,0.0492,0.0481,0.0481,0.0498,0.0499,0.048,0.0478,0.0476,0.0477,0.0474,0.0472,0.0471,0.046,0.046,0.0461,0,0,0,0,0,0,0.0515,0.0513,0.0486,0.05,0.0498,0.0504,0.0491,0.0492,0.051,0.0487,0.0486,0.052,0.0481,0.0478,0.0483,0.0475,0.0472,0.047,0.0459,0.046,0.0461,0.0455,0,0,0,0,0,0,0.0516,0.0512,0.0514,0.05,0.0498,0.0491,0.0491,0.0491,0.0512,0.0514,0.0504,0.0503,0.0481,0.0485,0.0481,0.0473,0.0469,0.0458,0.0459,0.046,0.0455,0.0456,0.0457,0,0,0,0,0,0.0517,0.0513,0.0514,0.0513,0.0497,0.0492,0.049,0.0495,0.0513,0.0517,0.0517,0.0504,0.0489,0.0484,0.048,0.0471,0.0458,0.0459,0.046,0.0454,0.0456,0.0457,0,0,0,0,0,0,0.0529,0.0513,0.0514,0.0507,0.0508,0.0495,0.0505,0.0512,0.0515,0.0523,0.0509,0.0506,0.0509,0.0498,0.0493,0.0474,0.0472,0.0473,0.0469,0.0471,0.0472,0.0489,0.0468,0,0,0,0,0,0.0531,0.0522,0.0515,0.0512,0.0517,0.0518,0.0522,0.0523,0.0522,0.0526,0.0518,0.0513,0.0504,0.0497,0.0488,0.0473,0.0498,0.0468,0.0469,0.047,0.0483,0.057,0.058,0.0465,0.0465,0.0465,0,0,0.0535,0.0528,0.0523,0.0514,0.0518,0.0514,0.0523,0.0532,0.0521,0.0522,0.0516,0.0521,0.0506,0.0491,0.049,0.0482,0.05,0.0472,0.0472,0.0485,0.0572,0.0584,0.0594,0.0466,0.0466,0.0466,0,0,0.0535,0.0535,0.0529,0.0527,0.0534,0.0529,0.0541,0.0539,0.0534,0.0534,0.053,0.0541,0.0524,0.0505,0.0496,0.0501,0.0512,0.0496,0.0501,0.0584,0.0595,0.0605,0.0586,0.0595,0.0486,0.0486,0.0486,0,0.0547,0.0528,0.053,0.0525,0.0522,0.0542,0.0534,0.0528,0.0524,0.0526,0.0539,0.0538,0.053,0.0507,0.0511,0.0502,0.0531,0.0492,0.0587,0.0598,0.0609,0.0588,0.0597,0.0486,0.0486,0.0486,0.0486,0,0.0534,0.0527,0.0529,0.0521,0.0517,0.0518,0.0509,0.0511,0.0525,0.0531,0.0538,0.053,0.054,0.0526,0.0521,0.0564,0.055,0.0588,0.0585,0.062,0.0594,0.0604,0.0486,0.0486,0.0486,0.0486,0,0,0.0541,0.0523,0.0526,0.0515,0.0513,0.0506,0.0493,0.049,0.0501,0.051,0.0529,0.0515,0.0549,0.0543,0.053,0.0584,0.0656,0.0622,0.0626,0.0602,0.0786,0.0659,0.0657,0.0735,0.0738,0.0741,0.0715,0,0.0536,0.0517,0.0506,0.049,0.048,0.0479,0.0467,0.0469,0.0485,0.0513,0.0524,0.0558,0.054,0.0565,0.0611,0.0657,0.0695,0.0656,0.0757,0.0758,0.0644,0.0671,0.0751,0.0722,0.0725,0.0726,0.0728,0,0.0526,0.051,0.0493,0.0465,0.0464,0.0468,0.0462,0.0452,0.049,0.0506,0.0542,0.0587,0.0621,0.065,0.0718,0.0704,0.0756,0.0787,0.0788,0.0689,0.0654,0.0698,0.0746,0.0745,0.0743,0.0742,0.0741,0,0.0517,0.0497,0.0481,0.0474,0.0456,0.0456,0.046,0.0475,0.0476,0.0539,0.0583,0.0621,0.0668,0.0747,0.0796,0.0795,0.0893,0.0896,0.0806,0.0793,0.0917,0.0908,0.0999,0.0999,0.0999,0.0999,0.0999,0,0.0501,0.0487,0.049,0.048,0.0479,0.0467,0.0474,0.0483,0.0518,0.0541,0.0605,0.0633,0.0726,0.0785,0.0822,0.0813,0.0912,0.0806,0.0801,0.0902,0.0892,0.0919,0.091,0.0998,0.0998,0.0999,0.0999,0,0.0482,0.0485,0.0471,0.047,0.0476,0.0483,0.0492,0.0492,0.0537,0.0572,0.0616,0.0682,0.0726,0.0768,0.0873,0.0826,0.0854,0.0845,0.0884,0.0882,0.0675,0.0666,0.0706,0.0702,0.0699,0.0696,0.0693,0,0.0466,0.0458,0.0473,0.0474,0.0483,0.0489,0.0485,0.0508,0.05,0.0582,0.0596,0.0685,0.0713,0.0718,0.0767,0.0768,0.0783,0.076,0.0765,0.0665,0.0657,0.0653,0.0649,0.0688,0.0687,0.0686,0.0685,0,0.0429,0.0453,0.0445,0.0455,0.0466,0.045,0.0453,0.0454,0.0476,0.0536,0.0581,0.0621,0.0641,0.0659,0.0668,0.0684,0.0748,0.0723,0.073,0.0735,0.0643,0.0637,0.0637,0.0673,0.0674,0.0676,0.0676,0,0.0416,0.0412,0.0418,0.0422,0.0432,0.0412,0.041,0.0402,0.0415,0.0501,0.0515,0.059,0.0649,0.0616,0.0631,0.0613,0.0593,0.0571,0.0586,0.0599,0.0574,0.0441,0.0409,0,0,0,0,0,0.0395,0.0377,0.037,0.0374,0.038,0.0385,0.0377,0.037,0.0412,0.0427,0.0469,0.0494,0.0507,0.0536,0.0491,0.0534,0.0573,0.0472,0.0551,0.0605,0.0619,0.0596,0,0,0,0,0,0,0.0379,0.037,0.0357,0.0334,0.0328,0.0319,0.0318,0.0338,0.033,0.0394,0.0407,0.0453,0.047,0.0551,0.0493,0.049,0.0518,0.0503,0.05,0.0597,0.061,0.0621,0.0603,0,0,0,0,0]},{"header":{"parameterUnit":"m.s-1","parameterCategory":2,"la1":30.2991,"la2":30.254,"lo1":-89.0895,"lo2":-89.0444,"dy":0.0017,"dx":0.0017,"nx":28,"ny":28,"refTime":"2025-07-23T09:00:00:Z","depth":"4","parameterNumber":3,"parameterNumberName":"V-component_of_CURRENTS"},"data":[0,0,0,0,0,0,0,0,0,0,0,0,0,0,0,0,0,0,0,0,0,0,0,0,0,0,0,0,0,0,0,0,0,0,0,0,0,0,0,0,0,0,0,0,0,0,0,0,0,0,0,0,0,0,0,0,0,0,0.0095,0.0095,0,0.0126,0.0126,0.0127,0.0147,0.0147,0.0148,0.0148,0.0204,0.0205,0.0207,0,0,0,0,0,0,0,0,0,0,0,0,0,0.0059,0.0059,0.0095,0.0095,0.0095,0.0126,0.0126,0.0127,0.0147,0.0147,0.0148,0.0148,0.0204,0.0205,0.0207,0,0,0,0,0,0,0,0,0,0,0,0,0,0.0081,0.006,0.0094,0.0109,0.011,0.0126,0.0126,0.0127,0.0147,0.0147,0.0148,0.0148,0.0203,0.0205,0.0207,0.0217,0,0,0.0214,0.0214,0,0,0,0,0,0,0,0,0.008,0.0082,0.0106,0.0108,0.011,0.0133,0.0134,0.0158,0.0147,0.0134,0.0148,0.0148,0.0182,0.0186,0.0192,0.022,0.0222,0.0214,0.0215,0.0216,0.0217,0,0,0,0,0,0,0,0.0078,0.0081,0.0107,0.0107,0.0109,0.0116,0.0119,0.0139,0.0157,0.0135,0.0136,0.0139,0.0183,0.019,0.0193,0.0223,0.0214,0.0216,0.0217,0.0218,0.0267,0.0267,0,0,0,0,0,0,0.0073,0.008,0.0106,0.0108,0.0094,0.0117,0.012,0.0125,0.0157,0.0161,0.0139,0.014,0.0186,0.0191,0.0195,0.0227,0.0216,0.0218,0.0219,0.0267,0.0267,0.0267,0,0,0,0,0,0,0.0072,0.0075,0.0105,0.0094,0.0098,0.0117,0.0123,0.0126,0.0136,0.016,0.0165,0.0146,0.0186,0.0192,0.0218,0.0228,0.0219,0.0221,0.0267,0.0267,0.0267,0.0278,0,0,0,0,0,0,0.0071,0.0075,0.0077,0.0094,0.0099,0.012,0.0122,0.0126,0.0137,0.0139,0.0167,0.0172,0.0187,0.0215,0.022,0.0231,0.0222,0.0267,0.0267,0.0267,0.0277,0.0278,0.0279,0,0,0,0,0,0.007,0.0077,0.0077,0.0081,0.0102,0.0121,0.0124,0.0138,0.0137,0.0146,0.0163,0.0172,0.0219,0.0217,0.0223,0.0235,0.0267,0.0267,0.0267,0.0277,0.0278,0.0279,0,0,0,0,0,0,0.0065,0.0081,0.0081,0.0093,0.0106,0.0124,0.0133,0.0138,0.0158,0.0159,0.0178,0.0185,0.0208,0.0218,0.0215,0.0247,0.0242,0.0243,0.0247,0.0249,0.0249,0.0253,0.0224,0,0,0,0,0,0.0063,0.0074,0.0087,0.0097,0.0103,0.0116,0.0124,0.0132,0.015,0.0158,0.018,0.0197,0.0213,0.0228,0.0243,0.0267,0.0261,0.0275,0.0275,0.0276,0.0282,0.0281,0.0282,0.0268,0.0268,0.0268,0,0,0.0063,0.0074,0.0079,0.0097,0.0107,0.0127,0.0122,0.0136,0.0157,0.0162,0.0198,0.0202,0.0218,0.0242,0.0253,0.0254,0.0274,0.0276,0.0277,0.0283,0.0281,0.0282,0.0284,0.0268,0.0268,0.0268,0,0,0.0074,0.0077,0.0091,0.0106,0.0122,0.0133,0.0137,0.0157,0.0168,0.0198,0.02,0.0209,0.0247,0.0254,0.0262,0.0275,0.0274,0.028,0.0295,0.0294,0.0295,0.0296,0.0276,0.0275,0.0285,0.0285,0.0285,0,0.0074,0.0095,0.0098,0.0119,0.0136,0.0137,0.0161,0.0174,0.0202,0.0215,0.0213,0.024,0.0252,0.0268,0.0276,0.0278,0.0273,0.0292,0.0295,0.0296,0.0297,0.0276,0.0276,0.0285,0.0285,0.0285,0.0285,0,0.0098,0.0118,0.0128,0.0157,0.0173,0.0193,0.021,0.0228,0.0238,0.0252,0.0267,0.0267,0.0286,0.0283,0.0291,0.03,0.0291,0.0293,0.0294,0.03,0.0277,0.0276,0.0286,0.0286,0.0286,0.0286,0,0,0.0097,0.0138,0.0143,0.0166,0.0196,0.0214,0.0244,0.0274,0.029,0.0302,0.0322,0.033,0.0319,0.0326,0.0316,0.0313,0.031,0.0313,0.0313,0.0294,0.0296,0.0288,0.0286,0.0317,0.0317,0.0318,0.0272,0,0.0119,0.0162,0.0179,0.0228,0.0252,0.027,0.0299,0.0323,0.0334,0.0354,0.034,0.0356,0.0338,0.0341,0.0333,0.0317,0.0311,0.0322,0.0293,0.0291,0.0285,0.0286,0.0318,0.0271,0.0271,0.0271,0.0271,0,0.014,0.0169,0.0214,0.0267,0.0278,0.0308,0.0347,0.0374,0.0394,0.0399,0.0397,0.0392,0.0385,0.037,0.0336,0.0346,0.033,0.0308,0.0306,0.0298,0.0282,0.0268,0.0268,0.0269,0.0269,0.0269,0.0269,0,0.0138,0.0197,0.0234,0.0254,0.0308,0.0334,0.0364,0.039,0.0416,0.0428,0.0438,0.042,0.0412,0.0387,0.0356,0.0352,0.0315,0.0302,0.027,0.0268,0.0285,0.0284,0.0287,0.0287,0.0287,0.0287,0.0288,0,0.0156,0.019,0.0239,0.0262,0.0313,0.0346,0.039,0.0411,0.0441,0.0465,0.0461,0.0455,0.0421,0.04,0.0365,0.0314,0.0324,0.0273,0.0262,0.0287,0.0287,0.0282,0.0283,0.0286,0.0286,0.0286,0.0287,0,0.0154,0.0183,0.0233,0.0292,0.0314,0.0351,0.0419,0.0447,0.0468,0.0493,0.0505,0.0492,0.045,0.0412,0.0362,0.0325,0.0281,0.0266,0.029,0.0281,0.0225,0.0226,0.0207,0.0207,0.0206,0.0206,0.0206,0,0.0157,0.0181,0.0247,0.0276,0.0307,0.0365,0.0404,0.0455,0.0479,0.0505,0.0512,0.0495,0.0474,0.0388,0.0344,0.0272,0.0267,0.0243,0.0236,0.0228,0.0219,0.0221,0.0223,0.0205,0.0205,0.0205,0.0205,0,0.0166,0.0186,0.0224,0.0276,0.0326,0.0383,0.0437,0.0462,0.051,0.0528,0.0519,0.049,0.0437,0.0371,0.0332,0.0279,0.0255,0.0237,0.0237,0.0231,0.0225,0.0217,0.0219,0.0203,0.0203,0.0203,0.0203,0,0.017,0.019,0.0231,0.0283,0.0339,0.0389,0.0422,0.0459,0.0496,0.0525,0.0512,0.0473,0.0451,0.0374,0.0332,0.0287,0.026,0.0241,0.024,0.0242,0.027,0.0269,0.0252,0,0,0,0,0,0.0175,0.0195,0.0235,0.0292,0.0345,0.0382,0.044,0.0468,0.0508,0.0504,0.0515,0.047,0.0401,0.0367,0.0317,0.0307,0.0248,0.0246,0.0225,0.0194,0.0196,0.0223,0,0,0,0,0,0,0.0175,0.0209,0.023,0.0292,0.0331,0.0394,0.0436,0.0462,0.046,0.0484,0.0446,0.0447,0.0376,0.0425,0.0311,0.0298,0.0275,0.022,0.0218,0.0193,0.0195,0.0196,0.0225,0,0,0,0,0]}]]